Location: Alsip
(41.6689°N, 87.7387°W)
Time: 14:29:41
(UTC+00:00)

USA 215 - Pass Details

Date: 14 July 2020
Orbit: 1102 x 1106 km, 123.0° (Epoch: 08 August)

Event Time Altitude Azimuth Distance (km) Brightness Sun altitude
Rises 03:33:52 0° 52° (NE) 3,924 6.2 -18.6°
Reaches altitude 10° 03:36:30 10° 59° (ENE) 2,963 5.5 -18.9°
Maximum altitude 03:42:41 43° 130° (SE) 1,498 3.5 -19.5°
Enters shadow 03:46:27 22° 188° (S) 2,169 4.4 -19.9°
